• In Deutschland
  • Länderverzeichnis
  • Für 7 Tage
  • Wassertemperatur
  • Satellitenkarten
  • Wetterkarte
  • Widgets
  • user-avatar
    Anmelden

    Stündliche Wetter Ali Bajramli

    Heute, 23 Juni, Freitag

    Zeit Temperatur Niederschläge Wind Luftdruck Luftfeuchtigkeit
    00:00 +21°C° 0 mm 2 m/S 757 mmHg 70%
    01:00 +21°C° 0 mm 2 m/S 757 mmHg 71%
    02:00 +21°C° 0 mm 2 m/S 757 mmHg 72%
    03:00 +20°C° 0 mm 2 m/S 757 mmHg 72%
    04:00 +21°C° 0 mm 2 m/S 757 mmHg 70%
    05:00 +23°C° 0 mm 2 m/S 758 mmHg 67%
    06:00 +24°C° 0 mm 2 m/S 758 mmHg 64%
    07:00 +25°C° 0 mm 2 m/S 758 mmHg 58%
    08:00 +27°C° 0 mm 1 m/S 758 mmHg 52%
    09:00 +28°C° 0 mm 1 m/S 758 mmHg 46%
    10:00 +29°C° 0 mm 2 m/S 758 mmHg 43%
    11:00 +30°C° 0 mm 2 m/S 758 mmHg 40%
    12:00 +31°C° 0 mm 2 m/S 758 mmHg 37%
    13:00 +31°C° 0 mm 3 m/S 758 mmHg 37%
    14:00 +33°C° 0 mm 4 m/S 758 mmHg 37%
    15:00 +33°C° 0 mm 5 m/S 757 mmHg 37%
    16:00 +32°C° 0 mm 5 m/S 757 mmHg 40%
    17:00 +30°C° 0 mm 5 m/S 757 mmHg 43%
    18:00 +29°C° 0 mm 6 m/S 757 mmHg 46%
    19:00 +28°C° 0 mm 5 m/S 758 mmHg 50%
    20:00 +27°C° 0 mm 4 m/S 758 mmHg 54%
    21:00 +26°C° 0 mm 3 m/S 758 mmHg 58%
    22:00 +25°C° 0 mm 3 m/S 758 mmHg 60%
    23:00 +25°C° 0 mm 2 m/S 758 mmHg 62%

    Morgen, 24 Juni, Samstag

    Zeit Temperatur Niederschläge Wind Luftdruck Luftfeuchtigkeit
    00:00 +24°C° 0 mm 1 m/S 758 mmHg 65%
    01:00 +24°C° 0 mm 1 m/S 758 mmHg 66%
    02:00 +23°C° 0 mm 1 m/S 758 mmHg 68%
    03:00 +23°C° 0 mm 1 m/S 758 mmHg 69%
    04:00 +24°C° 0 mm 1 m/S 758 mmHg 66%
    05:00 +24°C° 0 mm 1 m/S 758 mmHg 63%
    06:00 +23°C° 0 mm 0 m/S 759 mmHg 61%
    07:00 +26°C° 0 mm 1 m/S 758 mmHg 55%
    08:00 +28°C° 0 mm 1 m/S 758 mmHg 50%
    09:00 +29°C° 0 mm 2 m/S 758 mmHg 45%
    10:00 +30°C° 0 mm 2 m/S 758 mmHg 42%
    11:00 +31°C° 0 mm 3 m/S 757 mmHg 39%
    12:00 +33°C° 0 mm 3 m/S 757 mmHg 36%
    13:00 +34°C° 0 mm 4 m/S 756 mmHg 36%
    14:00 +34°C° 0 mm 4 m/S 756 mmHg 35%
    15:00 +34°C° 0 mm 5 m/S 755 mmHg 34%
    16:00 +33°C° 0 mm 5 m/S 755 mmHg 37%
    17:00 +32°C° 0 mm 6 m/S 755 mmHg 40%
    18:00 +30°C° 0 mm 6 m/S 755 mmHg 42%
    19:00 +29°C° 0 mm 5 m/S 755 mmHg 48%
    20:00 +27°C° 0 mm 5 m/S 755 mmHg 53%
    21:00 +26°C° 0 mm 4 m/S 756 mmHg 59%
    22:00 +25°C° 0 mm 3 m/S 755 mmHg 62%
    23:00 +25°C° 0 mm 3 m/S 755 mmHg 65%

    übermorgen, 25 Juni, Sonntag

    Zeit Temperatur Niederschläge Wind Luftdruck Luftfeuchtigkeit
    00:00 +25°C° 0 mm 2 m/S 755 mmHg 68%
    01:00 +24°C° 0 mm 2 m/S 755 mmHg 69%
    02:00 +24°C° 0 mm 1 m/S 755 mmHg 71%
    03:00 +23°C° 0 mm 1 m/S 755 mmHg 73%
    04:00 +24°C° 0 mm 1 m/S 755 mmHg 70%
    05:00 +25°C° 0 mm 1 m/S 756 mmHg 67%
    06:00 +25°C° 0 mm 1 m/S 756 mmHg 64%
    07:00 +27°C° 0 mm 1 m/S 756 mmHg 56%
    08:00 +29°C° 0 mm 2 m/S 756 mmHg 48%
    09:00 +31°C° 0 mm 2 m/S 756 mmHg 40%
    10:00 +32°C° 0 mm 2 m/S 756 mmHg 36%
    11:00 +34°C° 0 mm 3 m/S 756 mmHg 33%
    12:00 +36°C° 0 mm 3 m/S 756 mmHg 29%
    13:00 +36°C° 0 mm 4 m/S 756 mmHg 30%
    14:00 +35°C° 0 mm 6 m/S 756 mmHg 32%
    15:00 +35°C° 0 mm 7 m/S 756 mmHg 33%
    16:00 +34°C° 0 mm 7 m/S 756 mmHg 36%
    17:00 +33°C° 0 mm 7 m/S 757 mmHg 39%
    18:00 +32°C° 0 mm 8 m/S 757 mmHg 42%
    19:00 +30°C° 0 mm 7 m/S 757 mmHg 45%
    20:00 +29°C° 0 mm 7 m/S 758 mmHg 48%
    21:00 +28°C° 0 mm 7 m/S 758 mmHg 51%
    22:00 +27°C° 0 mm 6 m/S 759 mmHg 52%
    23:00 +27°C° 0 mm 5 m/S 759 mmHg 52%

    26 Juni, Montag

    Zeit Temperatur Niederschläge Wind Luftdruck Luftfeuchtigkeit
    00:00 +26°C° 0 mm 5 m/S 759 mmHg 53%
    01:00 +26°C° 0 mm 4 m/S 759 mmHg 55%
    02:00 +25°C° 0 mm 3 m/S 759 mmHg 57%
    03:00 +25°C° 0 mm 3 m/S 759 mmHg 59%
    04:00 +25°C° 0 mm 3 m/S 759 mmHg 58%
    05:00 +26°C° 0 mm 3 m/S 760 mmHg 57%
    06:00 +26°C° 0 mm 3 m/S 760 mmHg 55%
    07:00 +28°C° 0 mm 3 m/S 760 mmHg 50%
    08:00 +29°C° 0 mm 3 m/S 760 mmHg 45%
    09:00 +31°C° 0 mm 3 m/S 760 mmHg 40%
    10:00 +33°C° 0 mm 4 m/S 760 mmHg 38%
    11:00 +34°C° 0 mm 4 m/S 760 mmHg 35%
    12:00 +35°C° 0 mm 4 m/S 759 mmHg 33%
    13:00 +35°C° 0 mm 5 m/S 759 mmHg 33%
    14:00 +35°C° 0 mm 5 m/S 759 mmHg 33%
    15:00 +35°C° 0 mm 6 m/S 758 mmHg 33%
    16:00 +34°C° 0 mm 5 m/S 758 mmHg 36%
    17:00 +33°C° 0 mm 5 m/S 758 mmHg 38%
    18:00 +32°C° 0 mm 5 m/S 758 mmHg 41%
    19:00 +30°C° 0 mm 4 m/S 758 mmHg 46%
    20:00 +29°C° 0 mm 3 m/S 759 mmHg 50%
    21:00 +27°C° 0 mm 2 m/S 759 mmHg 54%
    22:00 +27°C° 0 mm 2 m/S 759 mmHg 57%
    23:00 +26°C° 0 mm 2 m/S 759 mmHg 60%

    27 Juni, Dienstag

    Zeit Temperatur Niederschläge Wind Luftdruck Luftfeuchtigkeit
    00:00 +26°C° 0 mm 1 m/S 758 mmHg 63%
    01:00 +25°C° 0 mm 1 m/S 758 mmHg 65%
    02:00 +25°C° 0 mm 1 m/S 758 mmHg 67%
    03:00 +24°C° 0 mm 1 m/S 758 mmHg 69%
    04:00 +25°C° 0 mm 1 m/S 758 mmHg 66%
    05:00 +26°C° 0 mm 1 m/S 758 mmHg 62%
    06:00 +26°C° 0 mm 1 m/S 758 mmHg 59%
    07:00 +28°C° 0 mm 1 m/S 758 mmHg 52%
    08:00 +30°C° 0 mm 1 m/S 758 mmHg 45%
    09:00 +32°C° 0 mm 1 m/S 758 mmHg 38%
    10:00 +33°C° 0 mm 1 m/S 757 mmHg 34%
    11:00 +34°C° 0 mm 1 m/S 757 mmHg 31%
    12:00 +37°C° 0 mm 2 m/S 757 mmHg 28%
    13:00 +37°C° 0 mm 2 m/S 756 mmHg 27%
    14:00 +37°C° 0 mm 3 m/S 756 mmHg 26%
    15:00 +38°C° 0 mm 4 m/S 756 mmHg 25%
    16:00 +37°C° 0 mm 4 m/S 756 mmHg 28%
    17:00 +36°C° 0 mm 5 m/S 756 mmHg 30%
    18:00 +35°C° 0 mm 5 m/S 756 mmHg 32%
    19:00 +33°C° 0 mm 4 m/S 757 mmHg 36%
    20:00 +30°C° 0 mm 4 m/S 757 mmHg 40%
    21:00 +29°C° 0 mm 3 m/S 757 mmHg 44%
    22:00 +28°C° 0 mm 2 m/S 757 mmHg 46%
    23:00 +28°C° 0 mm 2 m/S 757 mmHg 48%

    28 Juni, Mittwoch

    Zeit Temperatur Niederschläge Wind Luftdruck Luftfeuchtigkeit
    00:00 +27°C° 0 mm 2 m/S 757 mmHg 50%
    01:00 +27°C° 0 mm 2 m/S 757 mmHg 50%
    02:00 +26°C° 0 mm 2 m/S 757 mmHg 50%
    03:00 +26°C° 0 mm 2 m/S 757 mmHg 50%
    04:00 +27°C° 0 mm 2 m/S 757 mmHg 49%
    05:00 +27°C° 0 mm 2 m/S 757 mmHg 47%
    06:00 +28°C° 0 mm 2 m/S 757 mmHg 45%
    07:00 +30°C° 0 mm 2 m/S 757 mmHg 40%
    08:00 +31°C° 0 mm 2 m/S 757 mmHg 35%
    09:00 +34°C° 0 mm 2 m/S 757 mmHg 30%
    10:00 +35°C° 0 mm 3 m/S 757 mmHg 27%
    11:00 +37°C° 0 mm 4 m/S 757 mmHg 25%
    12:00 +38°C° 0 mm 4 m/S 757 mmHg 23%
    13:00 +39°C° 0 mm 5 m/S 756 mmHg 23%
    14:00 +39°C° 0 mm 6 m/S 756 mmHg 23%
    15:00 +39°C° 0 mm 7 m/S 755 mmHg 23%
    16:00 +38°C° 0 mm 7 m/S 755 mmHg 25%
    17:00 +36°C° 0 mm 7 m/S 755 mmHg 27%
    18:00 +35°C° 0 mm 7 m/S 755 mmHg 29%
    19:00 +33°C° 0 mm 6 m/S 756 mmHg 32%
    20:00 +32°C° 0 mm 6 m/S 756 mmHg 34%
    21:00 +30°C° 0 mm 5 m/S 756 mmHg 37%
    22:00 +29°C° 0 mm 4 m/S 756 mmHg 39%
    23:00 +29°C° 0 mm 4 m/S 756 mmHg 42%
    Mehr zeigen